Weather History for Fort Lauderdale, FL

Change the Weather History Date:

Friday, September 20, 2013

  Actual Average Record
Temperature  
Mean Temperature 81 °F -  
Max Temperature 87 °F 90 °F 95 °F (1987)
Min Temperature 75 °F 74 °F 65 °F (1977)
Cooling Degree Days 16    
Growing Degree Days 31 (Base 50)    
Moisture  
Dew Point 70 °F    
Average Humidity 69    
Maximum Humidity 91    
Minimum Humidity 51    
Precipitation  
Precipitation 0.09 in - - ()
Sea Level Pressure  
Sea Level Pressure 29.96 in    
Wind  
Wind Speed 6 mph (NE)    
Max Wind Speed 14 mph    
Max Gust Speed 21 mph    
Visibility 10 miles    
Events Rain    
Averages and records for this station are not official NWS values.
T = Trace of Precipitation, MM = Missing Value Source: NWS Daily Summary

Daily Weather History Graph

Daily Weather History Graph

Search for Another Location

Airport:

Trip Planner

Search our weather history database for the weather conditions in past years. The results will help you decide how hot, cold, wet, or windy it might be!

Date:

Astronomy

Sep. 20, 2013 Rise Set
Actual Time 7:08 AM EDT 7:19 PM EDT
Civil Twilight 6:45 AM EDT 7:42 PM EDT
Nautical Twilight 6:18 AM EDT 8:08 PM EDT
Astronomical Twilight 5:51 AM EDT 8:35 PM EDT
Moon 8:05 PM EDT (9/20) 8:10 AM EDT (9/20)
Length of Visible Light 12h 56m
Length of Day
12h 10m
Full, 98% of the Moon is Illuminated
Sep 20
Full
Sep 26
Last Quarter
Oct 4
New
Oct 11
First Quarter
Oct 18
Full

Hourly Weather History & Observations

Time (EDT) Temp. Heat Index Dew Point Humidity Pressure Visibility Wind Dir Wind Speed Gust Speed Precip Events Conditions
12:53 AM 81.0 °F 84.1 °F 69.1 °F 67% 29.99 in 10.0 mi ENE 5.8 mph - N/A   Overcast
1:53 AM 80.1 °F 82.9 °F 69.1 °F 69% 29.99 in 10.0 mi ENE 4.6 mph - N/A   Clear
2:53 AM 79.0 °F - 69.1 °F 72% 29.97 in 10.0 mi ENE 4.6 mph - N/A   Scattered Clouds
3:53 AM 79.0 °F - 69.1 °F 72% 29.96 in 10.0 mi NNE 3.5 mph - N/A   Scattered Clouds
4:53 AM 79.0 °F - 69.1 °F 72% 29.98 in 10.0 mi NE 5.8 mph - N/A   Scattered Clouds
5:53 AM 78.1 °F - 68.0 °F 71% 29.99 in 10.0 mi Calm Calm - N/A   Scattered Clouds
6:53 AM 75.9 °F - 70.0 °F 82% 29.98 in 10.0 mi NNW 3.5 mph - N/A   Clear
7:53 AM 77.0 °F - 71.1 °F 82% 29.98 in 10.0 mi Calm Calm - N/A   Partly Cloudy
8:53 AM 82.0 °F 85.5 °F 69.1 °F 65% 29.99 in 10.0 mi NNE 3.5 mph - N/A   Clear
9:53 AM 84.0 °F 87.0 °F 68.0 °F 58% 30.00 in 10.0 mi NE 11.5 mph - N/A   Scattered Clouds
10:53 AM 84.9 °F 88.2 °F 68.0 °F 57% 30.01 in 10.0 mi NE 11.5 mph 17.3 mph N/A   Scattered Clouds
11:53 AM 84.9 °F 88.2 °F 68.0 °F 57% 30.01 in 10.0 mi NE 12.7 mph 17.3 mph N/A   Scattered Clouds
12:53 PM 86.0 °F 90.1 °F 69.1 °F 57% 30.00 in 10.0 mi ENE 13.8 mph 19.6 mph N/A   Scattered Clouds
1:53 PM 86.0 °F 89.4 °F 68.0 °F 55% 29.97 in 10.0 mi ENE 11.5 mph 18.4 mph N/A   Scattered Clouds
2:53 PM 87.1 °F 90.6 °F 68.0 °F 53% 29.95 in 10.0 mi NE 13.8 mph 17.3 mph N/A   Scattered Clouds
3:53 PM 86.0 °F 88.2 °F 66.0 °F 51% 29.93 in 10.0 mi NNE 12.7 mph - N/A   Scattered Clouds
4:53 PM 84.9 °F 88.2 °F 68.0 °F 57% 29.93 in 10.0 mi ENE 8.1 mph - N/A   Scattered Clouds
5:53 PM 84.0 °F 87.0 °F 68.0 °F 58% 29.92 in 10.0 mi NE 9.2 mph - N/A   Scattered Clouds
6:53 PM 82.9 °F 87.0 °F 70.0 °F 65% 29.91 in 10.0 mi NE 8.1 mph - 0.00 in Rain Light Rain
7:53 PM 81.0 °F 85.2 °F 72.0 °F 74% 29.92 in 10.0 mi NNE 12.7 mph 20.7 mph 0.00 in   Mostly Cloudy
8:53 PM 78.1 °F - 73.9 °F 87% 29.93 in 10.0 mi Calm Calm - 0.04 in   Overcast
9:53 PM 75.9 °F - 73.0 °F 91% 29.94 in 10.0 mi NE 3.5 mph - 0.02 in Rain Light Rain
10:53 PM 77.0 °F - 73.0 °F 88% 29.94 in 10.0 mi ESE 5.8 mph - 0.03 in Rain Light Rain
11:53 PM 77.0 °F - 73.9 °F 90% 29.93 in 10.0 mi Calm Calm - 0.00 in   Overcast